Location: Hillsman's Observatory
(38.8566°N, 93.9398°W)
Time: 21:14:09
(UTC-06:00)

Tiangong 2 - Visible Passes

Search period start: 21 February 2018 00:00
Search period end: 03 March 2018 00:00
Orbit: 384 x 388 km, 42.8° (Epoch: 21 February)

Date Brightness Start Highest point End Pass type
(mag) Time Alt. Az. Time Alt. Az. Time Alt. Az.
21 Feb 2.2 19:34:38 10° W 19:37:37 37° SSW 19:38:03 35° S visible
22 Feb 1.4 18:35:33 10° WNW 18:38:42 66° SSW 18:41:51 10° ESE visible
22 Feb 4.2 20:13:57 10° WSW 20:14:34 11° SW 20:14:34 11° SW visible
23 Feb 3.4 19:13:49 10° W 19:16:15 20° SW 19:18:42 10° SSE visible
25 Feb 4.2 18:53:51 10° WSW 18:54:48 11° SW 18:55:45 10° SSW visible
